Wind_Speed
67 68 64 61 63 59 52 46 45 42 42 45 50 49 52 54 55 52 51 48 45 43 44 43 41 41 42 41 39 38 37 34 32 30 29 28 23 22 23 22 22 21 20 22
74 73 65 62 66 65 60 55 49 45 45 47 51 52 51 56 57 53 51 49 44 44 46 45 44 42 41 41 41 39 38 37 34 33 32 29 24 25 24 24 23 22 22 22
81 76 71 67 64 67 65 60 50 46 47 51 52 55 51 54 58 57 53 50 47 44 45 46 45 43 42 41 39 39 39 37 36 35 32 29 25 26 26 23 24 22 22 22
85 80 77 74 67 64 69 61 57 52 49 52 56 58 52 55 56 57 56 53 50 45 45 45 44 44 41 39 39 39 39 39 36 34 31 29 28 27 24 24 24 22 22 22
82 85 80 78 68 65 65 65 61 54 52 54 55 59 48 53 55 55 56 55 53 50 46 45 45 42 40 41 39 39 38 37 34 33 31 30 29 26 25 27 24 23 23 21
84 87 83 77 71 66 62 60 61 55 53 59 49 56 54 48 54 50 53 55 54 53 51 50 48 45 42 39 38 37 37 36 34 32 30 28 30 28 27 28 25 24 23 22
81 86 87 80 76 72 69 63 63 64 60 65 57 58 55 41 51 48 51 54 53 53 53 52 50 47 43 40 39 38 36 34 33 29 30 31 31 30 29 28 26 25 24 24
66 80 85 83 79 74 74 72 71 72 72 73 69 60 53 48 45 48 50 50 52 51 51 52 52 51 49 47 45 44 42 39 38 37 38 37 35 32 31 29 27 26 26 25
35 65 72 79 76 76 74 74 63 66 69 71 72 63 54 45 46 45 34 52 47 48 50 51 51 51 51 50 48 48 47 45 43 42 41 39 37 35 34 32 30 29 28 25
39 20 58 71 70 74 74 63 65 66 68 70 71 70 59 48 42 45 45 42 43 51 48 50 52 50 49 50 50 49 49 47 46 45 43 42 40 39 37 34 33 32 29 27
38 44 13 43 70 71 75 70 66 60 63 67 69 68 65 55 47 41 40 42 45 46 44 48 47 49 49 48 48 48 48 46 44 43 41 40 40 40 39 37 36 34 31 28
30 38 44 31 34 56 68 70 67 66 68 67 67 66 49 63 52 42 35 39 43 43 51 45 44 46 47 47 45 45 45 45 44 41 40 41 41 41 40 38 36 34 32 29
20 31 38 32 33 40 49 66 69 63 60 66 67 65 52 34 16 49 43 33 33 41 42 44 46 44 46 46 46 45 44 44 43 41 40 40 41 41 40 39 36 35 33 31
24 30 35 46 29 35 53 61 66 67 67 64 65 63 61 50 30 21 24 40 35 29 39 40 43 45 46 49 48 46 45 45 44 43 41 41 41 40 39 38 38 37 35 32
15 11 39 38 52 38 33 48 60 71 68 66 61 60 60 53 49 41 28 36 32 37 34 36 41 42 45 48 50 50 48 46 44 43 41 40 40 40 40 40 40 38 35 30
27 21 19 40 36 49 41 45 50 53 69 64 65 63 56 51 32 32 41 43 32 36 39 35 36 40 42 41 43 47 50 50 48 47 45 45 44 42 40 37 37 35 33 31
27 27 18 33 49 35 35 39 46 58 56 64 68 61 60 58 55 51 48 45 38 38 38 36 34 35 37 40 42 42 42 44 46 47 46 46 44 40 38 38 37 34 33 30
28 22 27 22 35 53 43 35 42 53 57 58 65 66 62 60 59 55 51 48 47 40 45 40 36 34 33 32 34 36 39 42 44 44 44 44 41 39 37 33 34 34 33 32
33 32 31 28 24 29 49 43 39 44 55 62 61 62 61 62 58 51 43 45 49 51 48 43 40 36 35 34 33 34 34 35 38 42 43 41 39 36 34 33 32 33 33 33
27 34 35 35 31 24 33 52 43 45 48 62 64 61 60 62 63 58 49 49 50 50 52 54 50 45 39 37 36 35 36 37 36 34 36 38 39 38 35 33 34 35 36 35
19 22 28 33 38 30 25 26 50 50 52 52 65 65 59 59 63 62 63 59 60 58 57 54 55 50 45 42 41 37 35 33 35 36 35 34 35 38 39 38 36 36 37 37
24 23 23 28 36 33 32 30 27 36 45 55 51 63 68 63 57 61 68 73 68 62 59 58 56 55 53 51 46 43 42 36 32 31 35 37 36 37 39 40 41 41 39 38
30 28 25 29 30 30 30 29 28 31 29 41 55 55 57 61 65 64 66 69 74 74 73 72 67 61 61 58 53 50 47 42 39 35 34 33 36 39 38 38 38 39 39 38
35 31 34 36 34 32 31 29 34 34 38 37 43 56 61 58 53 67 68 67 68 72 72 70 69 68 67 65 61 54 51 46 43 42 40 37 37 37 40 40 39 40 39 39
36 36 38 43 41 41 43 44 43 44 43 45 41 41 50 56 53 56 54 64 68 69 72 72 70 70 72 72 68 63 60 57 53 49 48 44 40 39 41 41 41 40 40 39
30 29 34 45 39 43 47 49 53 55 51 49 53 49 44 49 53 52 58 57 59 62 68 72 74 76 76 77 75 71 68 65 61 58 55 52 47 43 41 44 46 45 43 42
Wind_Direction
249 247 247 246 244 248 251 247 243 236 238 235 235 227 220 223 225 222 225 223 219 219 223 224 224 224 225 224 225 227 231 235 236 239 244 251 261 268 276 282 287 293 297 308
246 245 246 244 242 243 243 243 239 235 235 237 234 231 222 224 224 223 224 227 222 220 223 225 225 225 226 228 229 230 233 236 239 242 247 254 261 265 270 276 283 289 296 305
246 245 243 242 241 241 240 241 244 242 237 237 236 233 225 223 225 223 223 226 227 222 224 227 227 227 227 228 230 233 236 238 240 245 250 255 256 260 267 273 278 284 292 301
244 242 240 239 236 238 238 239 242 239 237 237 237 236 224 225 226 224 224 225 227 225 224 228 229 229 229 231 231 233 237 240 242 246 250 253 253 260 267 267 272 280 288 296
240 241 239 238 236 237 238 234 236 237 235 238 235 240 217 225 226 226 224 226 226 226 224 226 230 229 229 229 231 233 236 240 243 245 246 249 253 257 261 262 269 278 284 290
233 234 233 236 235 235 236 236 236 237 235 237 230 239 225 221 226 225 226 226 226 227 225 225 227 229 230 232 233 235 237 238 240 244 246 247 249 252 254 260 267 271 277 283
226 226 230 227 229 227 229 230 231 232 232 236 235 236 229 222 228 226 227 227 226 226 228 227 229 230 228 230 233 234 236 237 237 241 250 248 249 250 252 258 261 266 273 276
229 222 224 225 225 226 226 227 227 228 231 235 237 232 230 221 228 229 224 228 228 226 226 229 228 229 229 228 229 232 233 234 236 235 240 244 248 250 251 254 258 263 267 271
234 229 223 224 221 221 221 224 229 230 231 232 236 233 235 231 227 235 221 225 228 227 224 226 228 227 228 229 229 231 233 234 235 236 239 242 246 249 250 251 255 259 262 268
214 238 230 225 224 220 222 224 221 221 227 231 234 235 233 233 231 231 234 226 223 229 226 223 225 227 226 227 229 231 234 235 236 238 241 243 244 246 249 252 254 256 260 262
202 211 186 230 228 221 218 219 219 224 231 233 234 236 237 240 240 237 234 229 226 227 227 225 224 225 227 226 226 228 233 236 237 238 241 243 245 246 248 250 252 254 256 257
210 218 214 220 232 229 226 224 222 217 217 222 228 233 242 243 238 233 233 229 228 226 228 222 222 223 224 227 227 226 227 230 232 235 236 236 238 242 246 248 250 250 252 254
211 228 218 222 233 238 220 222 219 220 222 227 228 227 225 232 242 239 228 223 223 223 227 225 223 222 223 223 224 225 224 227 228 229 231 233 236 239 240 242 244 246 247 249
207 230 221 207 216 240 227 218 217 216 217 218 224 229 231 229 221 208 215 232 230 217 219 218 217 219 220 220 219 220 222 222 224 227 228 229 231 235 237 239 241 244 246 247
193 216 223 216 223 218 227 225 220 214 213 217 219 223 228 232 228 215 214 226 221 221 217 214 214 216 218 220 221 220 221 222 222 223 223 225 227 229 232 235 239 241 244 246
201 233 221 209 196 225 229 224 216 218 218 216 218 219 217 222 215 214 222 225 216 221 216 215 211 211 215 218 220 222 225 225 225 226 227 229 231 233 236 239 241 243 242 241
222 239 209 210 215 196 206 224 219 211 213 215 220 220 221 221 224 224 228 221 211 217 215 210 208 212 213 215 215 217 220 223 225 228 231 233 235 237 238 237 236 234 232 231
254 237 226 207 204 213 217 207 224 214 211 213 217 217 217 219 225 228 231 228 214 207 216 216 212 212 212 214 218 222 222 223 224 225 227 230 231 232 232 232 232 230 227 224
262 252 239 221 216 203 212 210 214 215 212 214 215 215 216 216 216 219 213 218 223 212 209 217 223 220 217 214 213 214 219 224 228 228 228 231 232 231 230 228 224 224 222 222
261 261 249 248 236 212 205 217 207 220 223 215 214 214 214 216 217 214 208 203 204 206 212 215 222 224 222 218 216 217 216 216 219 224 227 228 227 225 222 220 220 219 218 219
259 265 261 252 248 235 210 180 214 219 224 218 217 215 215 216 216 213 208 201 200 199 199 207 214 217 219 219 215 214 214 215 218 219 221 222 223 223 223 222 219 219 220 222
250 252 256 259 250 247 245 234 213 208 219 220 219 218 218 219 217 213 213 207 206 202 201 204 213 217 218 220 215 213 216 216 220 221 220 221 219 217 218 220 220 222 224 225
247 253 249 250 250 250 255 250 231 216 201 202 219 215 220 222 218 218 217 215 213 212 212 214 217 217 217 219 221 217 218 219 218 218 220 221 221 221 220 220 221 223 224 225
239 245 252 251 252 256 257 259 249 235 235 206 204 219 218 216 222 225 220 217 217 217 215 214 215 215 215 217 221 222 222 223 223 225 224 219 219 220 220 220 220 222 224 225
242 240 249 253 253 258 259 258 253 250 239 230 216 199 206 219 217 224 220 225 220 221 218 217 217 215 215 217 219 222 226 227 228 226 227 227 222 220 222 222 220 219 219 221
243 245 244 249 252 257 257 261 261 254 247 241 233 224 202 195 204 212 218 216 222 224 222 218 218 220 217 218 221 224 227 229 230 229 229 228 227 226 225 226 226 225 224 226
Height
5654 5656 5664 5677 5680 5683 5688 5693 5696 5702 5704 5704 5707 5713 5723 5725 5730 5739 5745 5753 5759 5765 5767 5770 5775 5779 5784 5788 5793 5797 5800 5803 5806 5808 5809 5810 5812 5812 5812 5812 5811 5809 5808 5806
5632 5638 5654 5657 5662 5667 5673 5678 5685 5689 5693 5693 5695 5701 5710 5714 5722 5730 5736 5744 5752 5757 5759 5762 5767 5772 5777 5781 5785 5789 5793 5797 5800 5802 5803 5806 5807 5807 5807 5807 5807 5806 5805 5803
5611 5629 5632 5639 5646 5653 5660 5667 5675 5679 5680 5680 5682 5687 5699 5704 5709 5719 5728 5735 5741 5748 5751 5754 5760 5765 5769 5774 5778 5782 5785 5789 5792 5795 5798 5800 5802 5802 5802 5803 5803 5802 5802 5800
5588 5605 5611 5618 5631 5639 5643 5655 5658 5663 5665 5668 5669 5670 5686 5693 5699 5709 5718 5725 5732 5739 5744 5747 5752 5757 5763 5767 5770 5773 5778 5781 5785 5789 5792 5795 5795 5796 5798 5798 5798 5798 5798 5796
5576 5579 5592 5600 5622 5623 5631 5636 5642 5647 5651 5649 5658 5659 5682 5684 5691 5702 5709 5714 5721 5727 5733 5738 5743 5749 5753 5757 5762 5766 5770 5774 5779 5782 5785 5788 5789 5790 5793 5792 5793 5794 5794 5793
5546 5551 5566 5588 5594 5609 5614 5621 5627 5634 5636 5634 5657 5653 5665 5678 5684 5690 5696 5702 5708 5714 5722 5727 5732 5739 5745 5750 5755 5760 5764 5767 5771 5775 5778 5781 5782 5784 5786 5786 5788 5789 5789 5788
5517 5525 5543 5558 5569 5584 5593 5603 5609 5615 5619 5632 5637 5640 5656 5668 5670 5679 5683 5689 5696 5704 5711 5718 5724 5730 5738 5743 5748 5752 5756 5761 5764 5768 5772 5774 5775 5777 5779 5781 5783 5784 5784 5784
5494 5502 5522 5539 5551 5568 5574 5579 5588 5596 5609 5619 5617 5628 5641 5658 5660 5666 5671 5677 5685 5694 5699 5706 5712 5719 5726 5732 5737 5742 5746 5752 5756 5760 5764 5766 5767 5770 5772 5775 5777 5778 5778 5779
5487 5490 5507 5515 5534 5544 5557 5556 5593 5588 5596 5601 5609 5624 5632 5644 5653 5654 5659 5666 5674 5680 5687 5694 5700 5707 5714 5721 5727 5732 5736 5741 5746 5750 5754 5758 5761 5764 5765 5767 5770 5771 5773 5774
5476 5483 5492 5507 5512 5523 5536 5572 5559 5568 5581 5592 5602 5607 5619 5633 5640 5644 5650 5657 5660 5667 5676 5683 5689 5695 5702 5709 5715 5721 5726 5732 5736 5740 5745 5749 5752 5755 5757 5761 5763 5765 5767 5768
5466 5471 5482 5488 5491 5512 5528 5526 5546 5568 5575 5584 5593 5599 5609 5619 5627 5634 5640 5646 5652 5657 5664 5673 5679 5685 5691 5698 5705 5711 5716 5722 5727 5732 5737 5741 5744 5747 5749 5753 5756 5759 5760 5762
5465 5463 5468 5477 5492 5503 5510 5522 5536 5543 5558 5571 5579 5588 5595 5604 5614 5623 5629 5635 5641 5646 5653 5661 5669 5675 5681 5688 5694 5700 5706 5712 5717 5722 5727 5732 5735 5738 5742 5746 5749 5751 5753 5755
5456 5459 5463 5470 5478 5482 5491 5508 5523 5544 5557 5555 5568 5577 5588 5594 5601 5610 5619 5625 5629 5636 5642 5650 5657 5665 5671 5677 5683 5689 5695 5702 5707 5712 5718 5723 5727 5730 5733 5737 5740 5743 5745 5748
5440 5449 5455 5461 5472 5479 5486 5494 5509 5524 5530 5550 5556 5571 5577 5586 5595 5603 5609 5616 5623 5627 5632 5638 5645 5653 5660 5666 5672 5678 5684 5690 5696 5702 5707 5712 5717 5721 5724 5727 5731 5734 5737 5741
5433 5437 5447 5455 5461 5468 5475 5487 5498 5504 5525 5530 5551 5555 5566 5573 5584 5592 5600 5608 5614 5619 5623 5628 5635 5642 5648 5655 5662 5669 5675 5681 5686 5691 5696 5702 5707 5711 5714 5718 5722 5725 5730 5734
5429 5431 5436 5445 5452 5458 5465 5475 5484 5498 5515 5523 5529 5541 5554 5564 5573 5580 5588 5599 5606 5611 5616 5621 5627 5633 5640 5646 5652 5659 5665 5671 5676 5682 5686 5691 5696 5701 5706 5710 5714 5718 5722 5726
5425 5427 5431 5436 5442 5450 5459 5464 5475 5490 5498 5513 5517 5533 5544 5553 5559 5566 5574 5587 5596 5603 5608 5613 5619 5625 5631 5637 5643 5649 5655 5660 5666 5672 5677 5682 5687 5692 5697 5701 5705 5710 5714 5719
5419 5423 5427 5431 5436 5444 5447 5456 5467 5477 5490 5498 5506 5516 5527 5539 5545 5552 5562 5574 5586 5594 5600 5605 5611 5617 5623 5629 5634 5640 5645 5650 5656 5661 5666 5672 5677 5683 5688 5693 5698 5702 5707 5711
5413 5417 5421 5425 5430 5434 5442 5454 5460 5468 5479 5481 5493 5504 5515 5523 5531 5540 5551 5562 5572 5583 5590 5596 5602 5609 5614 5620 5626 5631 5636 5641 5646 5652 5657 5662 5668 5674 5680 5686 5691 5695 5699 5703
5408 5410 5416 5420 5426 5432 5438 5445 5452 5460 5464 5471 5482 5494 5504 5510 5517 5531 5542 5550 5558 5567 5577 5586 5593 5599 5605 5611 5617 5623 5628 5633 5638 5644 5649 5654 5659 5665 5672 5677 5682 5687 5691 5695
5403 5405 5410 5413 5418 5427 5431 5436 5443 5452 5457 5463 5470 5481 5491 5495 5504 5518 5526 5535 5542 5552 5562 5572 5582 5589 5595 5601 5607 5614 5620 5626 5631 5636 5641 5647 5652 5658 5664 5669 5674 5679 5683 5688
5397 5399 5404 5407 5414 5421 5421 5427 5436 5440 5446 5453 5461 5468 5477 5484 5496 5501 5506 5516 5527 5539 5549 5559 5570 5578 5585 5591 5597 5603 5610 5618 5624 5629 5634 5639 5644 5649 5655 5660 5666 5671 5676 5681
5390 5394 5396 5401 5407 5412 5413 5418 5425 5429 5434 5439 5445 5453 5462 5471 5477 5482 5491 5502 5513 5522 5532 5542 5553 5563 5572 5579 5587 5594 5601 5608 5615 5621 5627 5632 5637 5643 5648 5653 5658 5664 5669 5675
5378 5383 5386 5391 5400 5402 5404 5408 5415 5419 5421 5427 5433 5440 5449 5457 5462 5468 5478 5489 5500 5511 5521 5530 5539 5550 5559 5567 5575 5583 5590 5598 5605 5612 5618 5623 5629 5635 5640 5645 5650 5656 5662 5667
5366 5370 5378 5380 5387 5389 5393 5397 5401 5406 5412 5419 5424 5429 5435 5442 5451 5458 5468 5476 5487 5497 5507 5518 5528 5537 5545 5553 5562 5570 5576 5584 5593 5600 5607 5614 5620 5625 5632 5638 5642 5647 5652 5657
5359 5363 5366 5371 5376 5375 5381 5383 5386 5393 5401 5407 5411 5418 5422 5428 5437 5444 5454 5465 5475 5484 5495 5504 5513 5522 5529 5539 5547 5556 5565 5571 5578 5586 5594 5602 5609 5615 5621 5628 5633 5638 5644 5648